Location: Cutler
(25.6150°N, 80.3110°W)
Time: 17:56:30
(UTC-04:00)

Vanguard 2 Rocket - Visible Passes

Search period start: 23 June 2018 00:00
Search period end: 03 July 2018 00:00
Orbit: 553 x 3328 km, 32.9° (Epoch: 22 June)

Date Brightness Start Highest point End Pass type
(mag) Time Alt. Az. Time Alt. Az. Time Alt. Az.
26 Jun 10.3 05:42:17 10° SSE 05:50:27 18° SE 06:00:32 10° E visible
28 Jun 10.0 05:53:34 10° S 06:03:48 28° SE 06:17:54 10° E visible
29 Jun 10.1 04:57:14 10° SSE 05:03:45 16° SE 05:11:53 10° E visible
30 Jun 9.8 06:06:09 10° SSW 06:17:08 40° SE 06:33:38 10° ENE visible
01 Jul 9.8 05:08:25 10° S 05:17:02 26° SE 05:29:22 10° E visible
02 Jul 9.9 04:12:41 10° SSE 04:17:23 14° SE 04:23:08 10° ESE visible
